Regional Weather Roundup
Issued by NWS Kansas City/Pleasant Hill, MO

Home | Current Version | Previous Version | Graphics & Text | Print | Product List | Glossary Off
Versions: 1 2 3 4 5 6 7 8 9 10 11 12 13 14 15 16 17 18 19 20 21 22 23 24 25 26 27 28 29 30 31 32 33 34 35 36 37 38 39 40 41 42 43 44 45 46 47 48 49 50

165
ASUS43 KEAX 241610
RWREAX

WEATHER ROUNDUP FOR EASTERN KANSAS AND NORTHWEST MISSOURI
NATIONAL WEATHER SERVICE KANSAS CITY/PLEASANT HILL MO
1100 AM CDT TUE APR 24 2018

KSZ040-057-103>105-MOZ028-029-037-043-241700-
...KANSAS CITY METROPOLITAN AREA...

CITY           SKY/WX    TMP DP  RH WIND       PRES   REMARKS
K.C. INTL      MOSUNNY   69  34  27 N9        30.13S
K.C. DOWNTOWN  SUNNY     70  35  27 NW9       30.11F
LEES SUMMIT    SUNNY     69  33  26 N10       30.13R
OLATHE - IXD   SUNNY     70  37  29 N8        30.14S
OLATHE - OJC   SUNNY     68  34  28 VRB6      30.13S
LAWRENCE       SUNNY     69  37  30 SW3       30.13F

$$

MOZ001>008-011>017-020>025-030>033-038>040-044>046-053-054-241700-
...NORTHERN AND CENTRAL MISSOURI...

CITY           SKY/WX    TMP DP  RH WIND       PRES   REMARKS
ST. JOSEPH     SUNNY     70  33  25 N5        30.14S
MOSBY          SUNNY     70  30  23 N5        30.12R
WARRENSBURG    SUNNY     64  36  34 NW7       30.11S
WHITEMAN AFB   MOSUNNY   65  40  39 NW6       30.07S
CLINTON        SUNNY     66  43  42 N8        30.11S
SEDALIA        SUNNY     67  47  48 N7        30.11R
WARSAW         NOT AVBL
CHILLICOTHE      N/A     68  40  35 VRB3      30.12S
KIRKSVILLE     SUNNY     67  48  50 NW9       30.10R

$$

MOZ041-047>049-056>058-063>065-088>090-097-241700-
...EASTERN AND SOUTHERN MISSOURI...

CITY           SKY/WX    TMP DP  RH WIND       PRES   REMARKS
ST. LOUIS INTL CLOUDY    58  52  80 N9        30.04R
SPIRIT OF STL  CLOUDY    61  54  77 N13       30.03S
COLUMBIA       CLOUDY    64  50  60 N15       30.08R
JEFFERSON CITY PTSUNNY   64  50  60 N12G20    30.07R
ROLLA          CLOUDY    60  50  69 N13       30.07R
OSAGE BEACH    MOSUNNY   66  52  60 N8G16     30.09R
SPRINGFIELD    SUNNY     66  50  56 NW9       30.08S
BRANSON        SUNNY     66  43  42 N12G18    30.09S
JOPLIN         SUNNY     68  44  42 N6        30.12S
WEST PLAINS    PTSUNNY   63  53  70 N10       30.06R

$$

IAZ060-094-KSZ022-034>040-054-083-096-NEZ052-066-093-241700-
...KANSAS...SOUTHEAST NEBRASKA AND IOWA...

CITY           SKY/WX    TMP DP  RH WIND       PRES   REMARKS
TOPEKA         MOSUNNY   69  37  30 VRB3      30.13F
MANHATTAN      CLOUDY    67  42  40 CALM      30.14S
EMPORIA        SUNNY     68  39  34 CALM      30.14S
CHANUTE        SUNNY     72  38  29 MISG      30.13F
WICHITA        MOSUNNY   71  42  35 NW6       30.15R
OMAHA          PTSUNNY   64  40  41 S3        30.14F
LINCOLN        MOSUNNY   62  38  40 CALM      30.16S
FALLS CITY     MOSUNNY   69  30  23 CALM      30.14F
LAMONI         SUNNY     68  34  28 VRB7      30.12S
DES MOINES     PTSUNNY   67  36  31 VRB3      30.13S

$$





USA.gov is the U.S. government's official web portal to all federal, state and local government web resources and services.